[[{"header":{"parameterUnit":"m.s-1","parameterCategory":1,"la1":30.2992,"la2":30.254,"lo1":-89.0895,"lo2":-89.0443,"dy":0.0025,"dx":0.0025,"nx":19,"ny":19,"refTime":"2026-05-09T09:00:00:Z","depth":0,"parameterNumber":2,"parameterNumberName":"U-component_of_WINDS"},"data":[0,0,0,-0.2414,-0.2413,-0.238,-0.2379,-0.2338,-0.2338,0,0,0,0,0,0,0,0,0,0,0,-0.2425,-0.2424,-0.2414,-0.2413,-0.238,-0.2379,-0.2338,-0.2338,0,0,0,0,0,0,0,0,0,0,0,-0.2425,-0.2424,-0.2424,-0.2413,-0.238,-0.2379,-0.2338,-0.2363,0,0,0,0,0,0,0,0,0,0,-0.2395,-0.2406,-0.2424,-0.2424,-0.2413,-0.238,-0.2379,-0.2364,-0.2361,-0.2354,0,-0.2347,0,-0.2342,-0.2335,-0.2335,0,0,0,-0.2412,-0.2408,-0.2399,-0.2424,-0.2412,-0.238,-0.2394,-0.2362,-0.2359,-0.235,-0.2347,-0.2345,-0.2341,-0.2335,-0.2334,-0.2296,-0.2296,0,0,-0.2414,-0.2419,-0.2401,-0.2397,-0.2402,-0.2396,-0.2393,-0.2361,-0.2357,-0.2347,-0.2344,-0.2341,-0.2334,-0.2334,-0.2296,-0.2296,0,0,0,-0.242,-0.242,-0.2411,-0.2398,-0.2392,-0.2395,-0.2392,-0.2358,-0.2355,-0.2344,-0.234,-0.2334,-0.2334,-0.2296,-0.2296,-0.2294,0,0,0,-0.2421,-0.2423,-0.2412,-0.2414,-0.2393,-0.2375,-0.2391,-0.2358,-0.2354,-0.234,-0.2334,-0.2333,-0.2296,-0.2296,-0.2295,-0.2292,0,0,0,-0.2426,-0.2424,-0.242,-0.2415,-0.2401,-0.2375,-0.237,-0.2357,-0.2351,-0.2335,-0.2333,-0.2297,-0.2296,-0.2295,-0.2293,-0.2284,0,0,0,-0.2433,-0.2417,-0.242,-0.24,-0.2401,-0.2375,-0.237,-0.235,-0.2336,-0.2334,-0.2296,-0.2296,-0.2295,-0.2293,-0.2284,-0.2278,-0.2275,0,0,-0.2415,-0.2415,-0.2403,-0.2405,-0.2379,-0.2379,-0.2354,-0.2335,-0.2329,-0.2308,-0.2306,-0.2294,-0.2293,-0.2284,-0.2261,-0.2259,0,0,0,-0.2399,-0.2391,-0.2383,-0.237,-0.2357,-0.2346,-0.2331,-0.2325,-0.2307,-0.2319,-0.2289,-0.2288,-0.2283,-0.2279,-0.2277,-0.2273,-0.2295,-0.2295,-0.2295,-0.2379,-0.2374,-0.2355,-0.2346,-0.2334,-0.232,-0.231,-0.2299,-0.2296,-0.2289,-0.2282,-0.2269,-0.2265,-0.2264,-0.2259,-0.2279,-0.2279,-0.2279,-0.2279,-0.2352,-0.234,-0.2339,-0.232,-0.2314,-0.2298,-0.2286,-0.2285,-0.2269,-0.2273,-0.2268,-0.2272,-0.2262,-0.2258,-0.2278,-0.2278,-0.2278,-0.2278,-0.2278,-0.2338,-0.2331,-0.2325,-0.2308,-0.2295,-0.2287,-0.2273,-0.2269,-0.2264,-0.2259,-0.2253,-0.2253,-0.2252,-0.2257,-0.2257,-0.2257,-0.2257,-0.2257,-0.2257,-0.2326,-0.2319,-0.2308,-0.2295,-0.2287,-0.2277,-0.2266,-0.2258,-0.2248,-0.2246,-0.2246,-0.2244,-0.2262,-0.2267,-0.2256,-0.2256,-0.2256,-0.2256,-0.2256,-0.2299,-0.2305,-0.2288,-0.2281,-0.2267,-0.2255,-0.2251,-0.2236,-0.2229,-0.2223,-0.2223,-0.2237,-0.2236,-0.2237,-0.2241,-0.2224,-0.2224,-0.2224,-0.2224,-0.2287,-0.2287,-0.227,-0.2259,-0.2248,-0.2243,-0.2225,-0.2217,-0.221,-0.2205,-0.2208,-0.2212,-0.2214,-0.2212,-0.2214,-0.2217,-0.2194,-0.2194,-0.2194,-0.2272,-0.2271,-0.2256,-0.225,-0.2239,-0.223,-0.2213,-0.2201,-0.2193,-0.2193,-0.2202,-0.2203,-0.2211,-0.2214,-0.2212,-0.2215,-0.2221,0,0]},{"header":{"parameterUnit":"m.s-1","parameterCategory":1,"la1":30.2992,"la2":30.254,"lo1":-89.0895,"lo2":-89.0443,"dy":0.0025,"dx":0.0025,"nx":19,"ny":19,"refTime":"2026-05-09T09:00:00:Z","depth":0,"parameterNumber":3,"parameterNumberName":"V-component_of_WINDS"},"data":[0,0,0,2.1463,2.1463,2.1467,2.1467,2.1469,2.1469,0,0,0,0,0,0,0,0,0,0,0,2.1462,2.1462,2.1463,2.1463,2.1467,2.1467,2.1469,2.1469,0,0,0,0,0,0,0,0,0,0,0,2.1462,2.1462,2.1462,2.1463,2.1467,2.1467,2.1469,2.1467,0,0,0,0,0,0,0,0,0,0,2.1464,2.1462,2.1462,2.1462,2.1463,2.1467,2.1467,2.1467,2.1467,2.1466,0,2.1467,0,2.1468,2.1469,2.1469,0,0,0,2.1463,2.1462,2.1463,2.1462,2.1463,2.1467,2.1465,2.1467,2.1467,2.1467,2.1467,2.1467,2.1468,2.1469,2.1469,2.1466,2.1466,0,0,2.1463,2.1462,2.1463,2.1463,2.1464,2.1465,2.1465,2.1467,2.1467,2.1467,2.1467,2.1468,2.1469,2.1469,2.1466,2.1466,0,0,0,2.1463,2.1462,2.1463,2.1463,2.1464,2.1465,2.1465,2.1467,2.1467,2.1467,2.1468,2.1469,2.1469,2.1466,2.1466,2.1464,0,0,0,2.1462,2.1461,2.1463,2.1462,2.1464,2.1466,2.1465,2.1467,2.1467,2.1468,2.1469,2.1469,2.1467,2.1466,2.1464,2.1463,0,0,0,2.1461,2.1461,2.1461,2.1462,2.1464,2.1466,2.1466,2.1467,2.1468,2.1469,2.1469,2.1467,2.1466,2.1464,2.1463,2.1462,0,0,0,2.146,2.1459,2.1461,2.1461,2.1463,2.1464,2.1466,2.1467,2.1467,2.1469,2.1466,2.1466,2.1464,2.1464,2.1462,2.1461,2.146,0,0,2.1458,2.1459,2.1459,2.1461,2.1461,2.1464,2.1463,2.1465,2.1466,2.1466,2.1466,2.1464,2.1463,2.1462,2.1456,2.1456,0,0,0,2.1458,2.1458,2.1458,2.1459,2.146,2.1461,2.1463,2.1463,2.1463,2.1466,2.1463,2.1463,2.1462,2.1462,2.1461,2.146,2.1466,2.1466,2.1466,2.1454,2.1455,2.1455,2.1456,2.1457,2.1458,2.1459,2.1459,2.1461,2.146,2.146,2.1457,2.1456,2.1456,2.1455,2.1459,2.1459,2.1459,2.1459,2.1452,2.1452,2.1453,2.1453,2.1454,2.1454,2.1455,2.1456,2.1455,2.1457,2.1456,2.1458,2.1455,2.1454,2.1459,2.1459,2.1459,2.1459,2.1459,2.1449,2.145,2.145,2.1451,2.145,2.1452,2.1451,2.1452,2.1453,2.1452,2.1452,2.1452,2.1452,2.1452,2.1452,2.1452,2.1452,2.1452,2.1452,2.1447,2.1448,2.1448,2.1448,2.1448,2.1448,2.1449,2.1449,2.1448,2.1449,2.1449,2.145,2.1454,2.1455,2.1452,2.1452,2.1452,2.1452,2.1452,2.1445,2.1446,2.1445,2.1445,2.1445,2.1445,2.1446,2.1445,2.1445,2.1444,2.1445,2.1448,2.1448,2.1449,2.145,2.1445,2.1445,2.1445,2.1445,2.1444,2.1444,2.1443,2.1443,2.1443,2.1443,2.1442,2.1441,2.1441,2.1441,2.1442,2.1443,2.1443,2.1444,2.1444,2.1445,2.1439,2.1439,2.1439,2.1442,2.1443,2.1442,2.1442,2.1442,2.1441,2.144,2.1438,2.1438,2.1439,2.1441,2.1441,2.1443,2.1443,2.1445,2.1445,2.1447,0,0]}]]